Temp
-4 -4 -4 -4 -4 -4 -4 -4 -4 -5 -5 -5 -5 -5 -5 -4 -4 -4 -4 -4 -4 -4 -3 -3 -3 -3 -4 -4 -5 -5 -5 -6 -6 -6 -5 -6 -5 -4 -5 -5 -5 -5 -4 -4 -3
-4 -4 -4 -4 -4 -4 -4 -5 -5 -5 -5 -5 -5 -5 -5 -4 -4 -4 -4 -4 -4 -4 -4 -4 -4 -4 -4 -4 -7 -7 -6 -7 -7 -6 -6 -6 -5 -5 -4 -5 -5 -4 -4 -3 -4
-4 -4 -4 -4 -4 -4 -4 -5 -5 -5 -5 -5 -5 -5 -5 -5 -5 -4 -4 -4 -4 -4 -4 -5 -5 -5 -4 -4 -7 -7 -6 -7 -6 -7 -6 -5 -5 -5 -5 -5 -5 -3 -4 -4 -4
-4 -4 -4 -4 -4 -4 -5 -5 -5 -5 -5 -5 -5 -5 -5 -5 -5 -4 -4 -4 -4 -4 -4 -5 -5 -5 -4 -6 -7 -6 -6 -7 -6 -6 -7 -6 -5 -5 -5 -4 -5 -5 -4 -5 -4
-5 -5 -5 -5 -5 -5 -5 -5 -5 -5 -5 -5 -5 -5 -5 -5 -5 -5 -4 -5 -5 -5 -5 -5 -5 -4 -4 -8 -8 -8 -7 -7 -6 -6 -5 -6 -6 -4 -4 -4 -4 -4 -5 -4 -4
-5 -5 -5 -5 -5 -5 -5 -5 -5 -5 -5 -5 -5 -5 -5 -5 -5 -5 -5 -5 -5 -5 -5 -5 -5 -4 -6 -8 -8 -8 -8 -7 -6 -6 -6 -7 -6 -5 -5 -4 -3 -3 -6 -5 -5
-5 -5 -5 -5 -5 -5 -5 -5 -5 -5 -5 -5 -5 -5 -5 -5 -5 -5 -5 -5 -5 -5 -5 -5 -5 -6 -7 -8 -8 -8 -7 -7 -7 -6 -7 -6 -5 -6 -6 -6 -4 -4 -4 -5 -6
-6 -6 -6 -5 -5 -5 -5 -5 -5 -5 -5 -5 -5 -5 -5 -5 -5 -5 -5 -5 -5 -6 -6 -6 -5 -6 -5 -7 -8 -8 -8 -7 -6 -7 -7 -7 -6 -7 -7 -5 -5 -6 -5 -5 -6
-6 -5 -6 -6 -6 -6 -6 -6 -5 -5 -5 -5 -5 -5 -5 -5 -5 -5 -5 -5 -5 -6 -6 -6 -6 -6 -7 -7 -8 -8 -8 -8 -8 -8 -7 -6 -6 -7 -6 -5 -5 -4 -5 -5 -5
-6 -5 -5 -5 -5 -5 -6 -6 -5 -5 -5 -5 -5 -5 -5 -5 -5 -5 -5 -5 -5 -5 -5 -6 -6 -6 -7 -7 -7 -8 -8 -8 -8 -7 -8 -6 -7 -7 -6 -6 -4 -4 -5 -4 -5
-6 -6 -5 -5 -5 -5 -5 -5 -5 -5 -5 -5 -5 -5 -5 -5 -5 -5 -5 -6 -5 -5 -5 -6 -6 -7 -7 -7 -7 -8 -7 -8 -8 -7 -7 -8 -7 -6 -6 -5 -6 -6 -4 -5 -5
-6 -6 -5 -5 -5 -5 -5 -5 -5 -5 -6 -5 -5 -5 -5 -5 -5 -5 -5 -6 -6 -6 -6 -6 -6 -7 -6 -8 -8 -8 -8 -8 -8 -7 -8 -8 -7 -7 -6 -6 -5 -5 -6 -5 -5
-6 -6 -6 -5 -5 -5 -5 -5 -5 -5 -5 -5 -6 -5 -5 -5 -5 -5 -6 -6 -6 -6 -6 -6 -7 -7 -7 -8 -8 -9 -8 -8 -8 -8 -8 -7 -7 -6 -7 -6 -6 -5 -5 -5 -5
-6 -6 -6 -6 -6 -6 -5 -6 -5 -5 -6 -6 -6 -6 -6 -5 -5 -5 -6 -6 -6 -6 -6 -6 -7 -8 -9 -9 -8 -8 -8 -9 -9 -8 -7 -8 -8 -7 -7 -7 -6 -6 -5 -5 -5
-7 -6 -6 -6 -6 -6 -6 -6 -6 -6 -6 -6 -6 -6 -6 -6 -6 -6 -6 -6 -6 -6 -6 -7 -7 -8 -8 -9 -9 -8 -9 -9 -8 -8 -8 -8 -8 -7 -7 -7 -6 -6 -6 -7 -6
-7 -7 -6 -6 -6 -6 -6 -6 -7 -6 -7 -6 -7 -7 -6 -6 -6 -6 -6 -7 -7 -7 -6 -7 -7 -9 -9 -9 -9 -8 -9 -9 -8 -8 -7 -8 -7 -7 -7 -7 -7 -6 -5 -6 -6
-7 -7 -7 -7 -7 -7 -7 -7 -7 -7 -8 -8 -7 -7 -7 -7 -6 -6 -6 -6 -6 -6 -6 -7 -7 -8 -9 -9 -9 -8 -9 -9 -9 -8 -8 -7 -8 -7 -8 -6 -7 -6 -5 -6 -6
-8 -8 -8 -8 -8 -8 -8 -8 -7 -8 -9 -10 -8 -7 -7 -7 -7 -7 -7 -7 -7 -7 -7 -7 -7 -7 -9 -9 -8 -8 -9 -8 -8 -9 -8 -8 -8 -7 -7 -7 -6 -6 -6 -6 -7
-8 -8 -8 -8 -8 -8 -8 -8 -8 -9 -10 -10 -10 -9 -8 -7 -8 -7 -7 -7 -7 -7 -7 -7 -8 -8 -9 -9 -8 -8 -9 -8 -9 -9 -8 -7 -8 -7 -7 -7 -6 -6 -6 -7 -6
-8 -8 -8 -8 -9 -9 -8 -8 -10 -10 -10 -10 -10 -10 -9 -8 -8 -7 -7 -7 -7 -7 -8 -7 -9 -9 -9 -8 -7 -7 -8 -8 -9 -9 -8 -8 -7 -6 -7 -7 -7 -6 -7 -6 -6
-9 -9 -9 -9 -9 -9 -9 -9 -11 -10 -9 -10 -10 -10 -10 -8 -8 -8 -8 -8 -8 -7 -7 -8 -8 -8 -8 -8 -8 -7 -9 -8 -9 -9 -8 -8 -7 -8 -7 -7 -6 -7 -8 -7 -7
-9 -9 -10 -10 -10 -10 -10 -10 -10 -10 -9 -10 -10 -10 -10 -10 -10 -9 -8 -9 -8 -8 -7 -8 -7 -8 -8 -8 -8 -8 -8 -8 -8 -8 -9 -9 -7 -7 -7 -6 -6 -8 -9 -8 -7
-9 -9 -10 -11 -11 -11 -10 -10 -10 -10 -9 -10 -11 -10 -10 -10 -10 -9 -9 -9 -9 -9 -7 -8 -8 -8 -8 -8 -9 -8 -8 -8 -8 -8 -8 -8 -8 -8 -8 -8 -6 -7 -8 -9 -8
-9 -10 -9 -10 -11 -11 -11 -11 -11 -10 -10 -10 -10 -10 -10 -10 -10 -9 -9 -9 -9 -9 -9 -9 -8 -8 -8 -8 -9 -9 -8 -8 -8 -8 -8 -8 -8 -8 -8 -8 -8 -7 -8 -9 -9
-9 -9 -9 -10 -11 -11 -11 -11 -11 -10 -11 -11 -10 -11 -10 -9 -10 -10 -10 -9 -9 -9 -7 -8 -7 -8 -8 -8 -9 -9 -8 -9 -9 -8 -8 -8 -8 -8 -7 -7 -8 -9 -9 -8 -8
-10 -10 -10 -10 -11 -13 -12 -12 -11 -11 -12 -12 -11 -10 -10 -10 -9 -10 -10 -9 -9 -9 -8 -8 -7 -8 -8 -8 -8 -8 -8 -7 -8 -8 -8 -8 -8 -8 -8 -7 -8 -8 -8 -8 -7
-9 -10 -11 -11 -10 -11 -11 -12 -12 -11 -12 -11 -11 -10 -10 -10 -9 -10 -10 -9 -9 -9 -7 -8 -7 -8 -8 -8 -9 -9 -8 -9 -8 -7 -8 -8 -8 -8 -7 -8 -7 -6 -6 -7 -8
Height
5885 5887 5888 5889 5890 5890 5891 5892 5892 5892 5893 5893 5894 5895 5896 5896 5898 5899 5899 5900 5902 5903 5905 5906 5908 5906 5909 5909 5909 5914 5916 5917 5917 5917 5916 5914 5916 5917 5916 5916 5918 5918 5917 5915 5912
5882 5883 5884 5886 5887 5888 5889 5889 5890 5890 5891 5891 5893 5893 5894 5895 5896 5897 5898 5898 5899 5901 5903 5907 5910 5909 5906 5906 5911 5914 5914 5914 5915 5916 5916 5914 5916 5918 5917 5917 5912 5917 5915 5917 5912
5878 5880 5881 5882 5884 5885 5886 5887 5888 5888 5889 5889 5890 5892 5892 5893 5895 5895 5895 5897 5898 5900 5902 5904 5905 5908 5907 5906 5909 5911 5912 5914 5913 5915 5917 5915 5914 5913 5917 5917 5915 5914 5912 5914 5911
5874 5876 5877 5879 5880 5881 5883 5884 5885 5886 5887 5888 5889 5890 5890 5892 5893 5892 5894 5895 5897 5898 5900 5902 5903 5905 5905 5904 5909 5910 5912 5914 5913 5914 5916 5914 5911 5913 5916 5916 5916 5911 5911 5907 5908
5870 5871 5873 5875 5877 5878 5879 5881 5882 5883 5885 5886 5886 5887 5889 5890 5890 5891 5892 5893 5894 5896 5899 5900 5900 5901 5901 5905 5907 5909 5909 5912 5914 5914 5914 5913 5912 5912 5913 5913 5915 5912 5909 5907 5905
5865 5867 5869 5871 5872 5874 5875 5877 5879 5880 5882 5883 5884 5885 5886 5888 5888 5889 5890 5891 5892 5894 5897 5897 5899 5901 5902 5904 5906 5907 5910 5912 5913 5914 5914 5913 5915 5915 5912 5908 5912 5910 5907 5907 5903
5860 5862 5864 5866 5868 5870 5871 5873 5875 5877 5878 5880 5881 5882 5883 5885 5886 5887 5888 5889 5891 5892 5895 5896 5898 5900 5898 5901 5903 5908 5912 5912 5913 5914 5913 5914 5916 5915 5912 5909 5908 5905 5907 5903 5902
5854 5857 5859 5861 5863 5865 5867 5869 5871 5873 5875 5877 5878 5879 5880 5882 5883 5885 5886 5888 5889 5891 5893 5894 5895 5897 5899 5900 5904 5909 5911 5912 5913 5914 5914 5915 5914 5912 5910 5906 5891 5900 5909 5905 5902
5848 5851 5853 5856 5858 5861 5863 5865 5867 5869 5871 5874 5876 5877 5878 5879 5881 5882 5885 5886 5887 5889 5891 5893 5895 5895 5898 5899 5904 5907 5910 5911 5912 5913 5913 5912 5912 5912 5910 5906 5894 5901 5904 5900 5898
5842 5845 5848 5851 5853 5856 5858 5860 5862 5865 5868 5870 5872 5876 5876 5878 5879 5880 5882 5884 5886 5887 5889 5891 5893 5895 5899 5898 5903 5905 5906 5910 5912 5913 5913 5908 5909 5913 5910 5904 5902 5900 5900 5898 5893
5836 5839 5842 5846 5848 5851 5854 5855 5859 5862 5863 5867 5870 5871 5873 5875 5877 5878 5880 5882 5884 5886 5888 5890 5893 5895 5897 5897 5902 5905 5907 5909 5910 5911 5911 5911 5908 5909 5908 5905 5905 5901 5897 5897 5896
5830 5834 5837 5840 5843 5846 5848 5850 5854 5859 5860 5862 5864 5868 5869 5872 5874 5876 5878 5880 5882 5885 5886 5889 5892 5895 5894 5897 5903 5903 5908 5908 5908 5912 5911 5913 5909 5909 5908 5904 5905 5902 5900 5897 5894
5825 5828 5832 5835 5838 5841 5844 5847 5848 5850 5854 5858 5861 5864 5865 5869 5870 5873 5875 5877 5880 5882 5885 5889 5891 5894 5894 5895 5902 5904 5907 5909 5905 5911 5914 5909 5910 5908 5908 5907 5904 5901 5898 5898 5895
5819 5823 5826 5830 5834 5836 5838 5842 5844 5847 5851 5855 5856 5859 5863 5865 5868 5869 5871 5875 5876 5880 5883 5887 5888 5888 5896 5899 5900 5900 5907 5908 5908 5911 5911 5910 5907 5907 5909 5908 5906 5905 5898 5898 5896
5814 5817 5821 5824 5828 5831 5836 5837 5839 5842 5846 5848 5850 5853 5857 5862 5862 5866 5869 5870 5874 5877 5880 5884 5884 5887 5890 5898 5899 5902 5904 5906 5906 5906 5910 5911 5907 5907 5907 5905 5903 5904 5899 5897 5897
5808 5811 5815 5819 5822 5825 5827 5830 5834 5838 5840 5841 5848 5851 5853 5856 5859 5861 5864 5867 5871 5873 5877 5881 5882 5886 5890 5895 5896 5898 5900 5901 5903 5906 5907 5905 5898 5903 5903 5903 5901 5902 5900 5898 5898
5802 5806 5809 5812 5817 5818 5822 5825 5829 5833 5835 5837 5844 5846 5848 5851 5855 5857 5860 5863 5867 5870 5873 5877 5879 5882 5887 5891 5891 5893 5896 5897 5900 5901 5902 5894 5895 5894 5896 5896 5896 5897 5896 5896 5896
5797 5800 5803 5807 5809 5812 5816 5820 5825 5833 5836 5835 5839 5842 5845 5847 5850 5853 5856 5860 5863 5867 5870 5873 5877 5879 5882 5886 5889 5890 5894 5895 5896 5896 5896 5894 5892 5893 5896 5896 5897 5898 5894 5896 5895
5792 5795 5798 5802 5805 5809 5813 5817 5825 5829 5832 5837 5834 5835 5841 5844 5848 5849 5852 5857 5861 5864 5867 5869 5874 5878 5881 5882 5884 5888 5889 5891 5893 5893 5892 5889 5892 5890 5891 5891 5893 5896 5895 5896 5897
5788 5790 5793 5795 5799 5803 5809 5816 5819 5819 5823 5828 5832 5836 5838 5841 5843 5846 5849 5854 5857 5860 5864 5867 5868 5874 5879 5881 5881 5883 5886 5886 5888 5890 5888 5886 5887 5889 5885 5889 5894 5892 5893 5896 5896
5783 5784 5786 5789 5792 5797 5806 5813 5816 5818 5821 5827 5831 5833 5836 5837 5840 5843 5848 5851 5854 5857 5861 5865 5867 5871 5874 5877 5879 5882 5880 5882 5885 5886 5884 5883 5886 5888 5881 5886 5887 5885 5891 5895 5895
5781 5781 5782 5784 5789 5794 5803 5807 5810 5813 5816 5822 5824 5827 5833 5837 5838 5842 5843 5847 5851 5854 5858 5862 5864 5866 5870 5875 5877 5877 5879 5880 5882 5884 5882 5880 5882 5885 5883 5880 5880 5882 5881 5894 5895
5779 5780 5780 5782 5787 5793 5797 5802 5805 5808 5812 5819 5825 5827 5831 5834 5839 5841 5843 5848 5850 5852 5856 5859 5861 5865 5866 5871 5873 5874 5875 5878 5882 5885 5872 5873 5877 5879 5882 5882 5883 5883 5880 5886 5894
5778 5778 5778 5780 5784 5789 5790 5795 5804 5809 5811 5813 5818 5823 5821 5826 5834 5839 5842 5846 5849 5851 5852 5855 5857 5860 5865 5867 5869 5870 5871 5873 5878 5879 5877 5869 5872 5875 5879 5883 5879 5880 5878 5884 5889
5776 5777 5778 5778 5781 5787 5791 5793 5796 5801 5806 5810 5814 5812 5809 5815 5827 5830 5834 5842 5845 5845 5848 5851 5853 5856 5859 5861 5864 5866 5869 5870 5874 5877 5875 5875 5870 5872 5872 5878 5879 5882 5880 5882 5881
5775 5775 5777 5778 5777 5783 5788 5793 5798 5803 5803 5806 5804 5804 5810 5814 5819 5827 5831 5834 5834 5837 5842 5846 5849 5852 5854 5856 5859 5860 5864 5868 5870 5865 5864 5861 5864 5869 5874 5875 5876 5874 5875 5877 5872
5771 5773 5775 5776 5772 5777 5779 5786 5789 5794 5794 5795 5798 5803 5806 5809 5817 5820 5824 5829 5831 5833 5838 5841 5843 5846 5849 5852 5855 5857 5863 5861 5864 5861 5860 5862 5863 5864 5865 5868 5870 5867 5865 5862 5868
Wind_Speed
12 11 10 10 11 8 6 6 6 7 9 7 6 6 6 7 8 9 9 10 10 10 11 11 12 13 13 11 11 2 8 6 3 6 9 4 8 2 8 12 9 14 11 10 14
13 12 11 11 11 11 10 7 7 7 8 10 8 7 6 6 7 10 12 11 11 11 11 7 3 10 15 12 7 12 3 5 7 2 4 4 6 5 4 5 9 10 10 10 13
15 14 13 12 12 12 13 10 7 6 7 7 9 9 9 7 7 9 12 12 12 13 12 12 13 14 14 12 2 13 6 9 5 2 4 3 4 6 3 4 9 11 10 12 12
16 16 15 14 13 13 14 14 10 8 7 10 9 8 6 7 9 11 9 10 12 13 13 12 14 18 18 14 9 13 8 6 10 4 8 14 14 6 11 3 4 10 10 14 14
17 17 16 15 14 14 14 14 14 9 9 8 10 10 10 7 11 8 9 10 12 13 14 15 17 20 18 10 13 13 14 9 4 7 10 10 11 10 7 5 5 6 9 12 15
18 18 17 16 16 15 14 14 15 13 9 10 8 10 10 9 10 10 10 11 12 14 14 16 17 17 14 9 14 18 7 8 7 5 5 7 10 9 16 15 10 8 11 16 18
19 19 18 18 17 16 15 14 15 15 12 9 9 9 11 9 13 8 11 11 11 14 14 16 14 15 21 16 13 14 9 7 5 3 7 9 7 5 11 14 14 16 8 17 21
21 21 20 19 18 17 17 16 15 15 14 11 10 7 10 13 10 9 9 10 12 13 14 14 16 16 15 14 16 3 5 7 7 7 12 12 10 7 10 13 16 10 14 15 16
21 21 20 20 19 19 18 18 18 15 15 13 9 8 11 14 12 9 8 9 11 12 13 13 12 12 12 12 13 11 4 3 8 9 15 8 6 10 13 14 19 14 16 17 16
22 21 20 20 19 19 19 18 18 19 16 14 13 10 11 13 12 12 10 9 9 11 10 10 10 12 14 18 10 9 8 9 11 12 9 18 13 9 12 17 14 13 17 15 16
22 21 20 20 20 20 20 20 19 18 17 16 13 11 12 14 15 13 13 12 12 11 9 10 10 13 19 10 4 11 5 5 6 8 13 12 24 15 13 12 10 13 18 14 15
22 22 21 20 20 20 21 20 18 15 18 18 17 14 14 13 18 18 16 14 13 11 12 12 13 18 16 2 9 2 10 6 17 12 16 13 17 19 15 17 14 14 12 12 16
23 22 21 21 21 20 20 19 20 19 18 17 18 16 18 15 17 19 18 17 15 15 13 10 17 16 11 7 11 8 12 11 17 12 17 13 12 13 12 21 17 17 8 9 10
22 22 22 22 22 22 22 19 21 18 17 17 18 19 18 17 16 19 21 21 19 16 15 15 19 17 2 9 12 9 3 8 17 25 11 14 24 21 16 21 10 11 4 5 7
21 22 23 22 23 22 20 22 21 21 20 23 21 20 20 18 21 18 21 22 20 18 17 14 15 16 14 10 22 18 11 20 21 8 10 12 27 23 16 24 13 7 2 2 5
22 23 24 24 23 23 25 25 24 24 20 26 17 17 21 22 19 20 22 22 21 21 20 19 19 13 10 17 21 17 19 11 12 19 15 19 30 25 7 11 7 9 3 5 3
22 23 23 23 21 24 24 25 26 21 21 20 13 17 21 23 21 20 21 22 22 22 19 19 24 20 16 17 19 14 24 17 16 6 18 31 31 32 7 9 7 7 5 6 5
19 19 20 20 22 22 23 25 22 17 14 5 10 13 17 22 22 21 19 21 21 19 19 15 20 18 17 22 22 15 13 17 14 19 24 30 30 17 8 11 11 7 4 6 6
16 21 23 23 22 21 20 16 13 21 17 6 19 15 11 21 22 23 22 19 20 19 20 18 9 12 14 18 14 16 13 13 14 23 23 29 24 21 17 19 15 11 4 4 6
15 17 20 23 27 27 24 15 26 34 28 21 20 10 13 20 23 24 21 17 19 20 19 16 16 13 14 17 14 20 20 17 23 27 24 14 15 17 19 24 15 13 6 6 6
8 13 19 24 28 30 23 20 35 35 28 27 17 14 12 19 20 21 19 14 17 18 20 21 20 15 16 27 18 15 25 25 18 27 17 26 17 9 12 10 19 14 7 8 9
0 6 9 17 24 26 23 27 38 36 29 25 30 22 18 11 12 16 17 10 15 19 21 21 21 22 20 18 21 16 26 26 14 12 23 30 25 19 6 9 14 14 16 10 11
2 2 7 10 17 21 26 30 39 35 24 24 20 25 20 19 18 17 20 17 11 17 18 22 25 20 21 18 16 18 15 17 22 22 36 36 26 8 9 11 16 29 11 13 11
5 5 6 14 18 23 32 32 30 29 26 22 38 27 32 27 23 21 18 17 13 24 25 24 23 25 21 19 25 24 17 13 22 20 28 35 25 21 24 13 14 17 16 17 10
6 7 6 12 14 16 27 32 35 24 13 22 37 38 26 24 25 31 23 20 19 31 21 23 23 23 26 21 24 30 27 23 21 17 19 24 28 27 25 22 23 26 21 18 19
6 6 3 11 17 16 22 28 28 13 13 20 33 39 29 24 28 26 26 29 27 32 26 24 23 23 29 27 25 22 28 17 20 23 24 18 26 22 19 23 27 38 29 31 24
10 12 9 13 20 27 29 26 31 22 26 30 28 37 40 37 30 33 33 32 32 33 24 25 26 26 27 28 12 14 7 12 8 21 27 33 22 25 27 23 15 22 26 21 21
Wind_Direction
249 247 242 238 232 225 232 237 254 254 241 237 236 232 229 229 222 222 222 220 209 198 203 206 207 193 199 185 140 82 78 61 90 72 239 35 322 294 300 307 324 334 312 316 299
247 246 244 239 236 232 227 242 257 250 245 235 234 234 234 233 222 224 218 216 212 212 210 194 241 238 207 180 130 158 176 219 286 281 332 311 224 335 345 332 356 342 307 289 293
246 246 244 243 240 234 227 231 245 252 245 235 233 239 241 239 237 233 230 220 213 208 206 193 180 220 208 185 271 217 238 219 293 249 165 79 212 224 331 247 322 307 308 305 305
245 244 244 244 243 239 233 223 231 252 253 243 238 237 237 238 231 236 236 224 216 208 205 205 191 207 197 169 193 237 216 222 260 254 243 263 288 312 300 336 290 298 300 315 303
241 241 243 242 244 241 239 231 227 240 253 255 242 244 240 235 240 239 233 220 213 206 202 205 205 214 189 157 220 235 246 246 239 270 262 276 301 307 292 310 297 291 315 318 330
241 238 240 243 242 242 242 240 233 232 255 248 256 243 233 229 234 228 225 219 212 209 201 207 213 228 164 182 226 211 220 229 241 229 297 291 298 324 319 334 307 318 319 348 333
242 239 239 242 240 239 242 243 240 235 236 265 249 244 225 214 215 224 222 218 215 209 210 216 215 233 185 202 238 223 224 193 253 258 273 305 312 312 299 311 317 316 312 347 343
241 242 239 237 237 237 242 241 239 237 236 250 246 253 223 211 211 220 224 217 211 211 218 218 216 222 219 202 157 197 213 245 247 298 304 320 332 358 343 322 248 323 330 344 335
237 237 236 235 235 238 240 239 239 238 235 237 254 249 215 213 207 214 213 215 210 215 222 215 231 199 215 168 138 102 60 355 320 311 323 265 343 317 321 306 310 305 345 342 336
235 234 235 234 235 236 237 236 238 238 237 233 236 238 227 218 207 207 210 214 208 216 217 208 199 177 195 131 124 188 217 216 255 291 357 318 321 297 316 314 326 335 342 355 337
232 233 233 235 235 236 237 239 238 239 239 240 238 238 231 219 213 214 213 212 215 217 206 200 186 163 187 142 211 240 234 216 259 246 358 300 305 333 325 319 327 334 340 2 1
231 230 231 232 233 234 236 240 244 239 238 236 227 226 226 228 220 218 220 217 218 217 209 200 162 180 165 108 266 188 218 86 283 277 324 290 297 324 338 336 344 343 4 4 12
230 229 229 229 229 232 236 236 236 236 235 238 232 227 222 227 226 220 217 218 214 216 212 184 169 192 164 196 267 216 218 154 276 280 287 305 311 332 318 349 334 326 3 10 2
229 229 227 225 227 227 231 234 238 243 242 240 235 228 225 225 231 225 219 218 217 217 215 193 186 154 233 261 259 221 98 250 245 258 262 313 294 301 343 340 316 309 337 30 335
227 228 227 226 227 231 236 238 236 240 239 234 229 226 224 215 219 219 224 225 221 220 220 206 201 184 189 216 258 240 205 233 245 228 269 255 283 296 314 319 285 311 83 337 292
228 228 229 230 230 230 231 230 234 236 236 247 230 226 223 219 221 223 214 218 217 222 219 204 198 187 201 227 255 233 212 242 279 248 251 249 254 261 274 324 279 289 67 130 169
231 230 230 229 227 227 230 231 231 225 228 246 244 235 221 220 220 223 222 216 217 221 227 212 211 202 217 227 254 234 205 240 246 210 250 257 264 256 217 224 234 242 55 67 85
226 225 223 219 217 218 223 227 225 199 219 242 277 253 228 222 217 224 214 217 218 222 225 229 220 221 207 244 245 224 248 255 214 256 262 257 283 281 243 248 252 258 81 80 82
223 224 223 221 218 218 217 217 186 175 163 199 250 266 218 216 213 223 223 217 220 224 224 215 197 218 232 245 246 219 214 238 232 262 263 276 288 256 236 239 220 222 137 111 124
235 231 226 224 221 219 219 190 174 182 179 185 229 242 274 223 212 219 221 213 220 219 214 211 206 212 288 301 245 217 214 233 241 257 272 296 309 313 294 221 208 172 174 182 166
237 240 236 225 221 218 210 187 182 185 183 179 185 193 296 221 216 217 221 217 216 216 206 207 207 181 211 250 274 228 208 236 258 270 316 321 317 350 38 172 174 159 167 199 180
157 233 230 226 213 207 195 190 192 201 190 197 193 172 197 236 231 219 216 225 223 206 212 208 219 186 194 224 276 291 243 238 273 319 290 278 292 319 319 204 203 165 162 216 188
229 244 219 204 199 190 189 193 198 198 194 205 193 183 189 193 214 246 205 213 212 247 213 203 213 218 196 204 242 266 219 226 253 259 282 290 307 314 321 292 248 224 141 169 204
250 229 207 191 201 201 191 192 208 212 221 217 201 210 196 176 196 218 242 215 200 241 242 224 218 221 207 210 234 237 238 230 224 251 275 282 316 313 301 316 255 259 162 168 181
249 249 252 207 178 192 212 198 195 206 228 216 198 209 226 184 194 205 204 199 214 248 232 230 229 219 199 225 246 237 240 223 233 260 247 260 279 284 295 307 288 253 249 184 186
239 229 237 230 164 186 199 204 202 204 212 203 214 208 204 193 188 205 214 200 215 228 237 227 226 225 206 215 237 235 231 231 236 250 262 267 285 272 299 295 287 292 289 225 200
234 217 218 196 204 179 190 184 191 205 210 229 220 214 208 204 205 200 209 208 209 228 213 215 221 226 219 224 228 267 216 243 255 267 274 267 274 282 270 269 335 308 270 232 196